Back to catalog

CELESTA

LostScienceMEO
NORAD 53111·PAYLOAD·🇫🇷 France

Launched Jul 13, 2022 from Guiana Space Centre

Loading…

Next Passes (next 24 hours)

TLE

StaleSource: Space-Track

Epoch: May 25, 2023, 20:29 UTC

1 53111U 22080G   23145.85382453 -.00000003  00000-0  00000+0 0  9999
2 53111  70.6593 327.3289 0101863  79.9078 281.3061  6.46589524 20200

Track CELESTA in real time with AllMySat

Download on the App Store